SCP
0 0 0 0 0 0 0 0 0 0 0 0 0 0 0 0 0 0 0 0 0 0 0 0 0 0 0 0 0 0 0 0 0 0 0 0 0 0 0 0 0 0 0 0
0 0 0 0 0 0 0 0 0 0 0 0 0 0 0 0 0 0 0 0 0 0 0 0 0 0 0 0 0 0 0 0 0 0 0 0 0 0 0 0 0 0 0 0
0 0 0 0 0 0 0 0 0 0 0 0 0 0 0 0 0 0 0 0 0 0 0 0 0 0 0 0 0 0 0 0 0 0 0 0 0 0 0 0 0 0 0 0
0 0 0 0 0 0 0 0 0 0 0 0 0 -0 0 0 0 0 0 0 0 0 0 0 0 0 0 0 0 0 0 0 0 0 0 0 0 0 0 0 0 0 0 0
0 0 0 0 0 0 0 0 0 0 0 0 0 -0 -0 -0 0 0 0 0 0 0 0 0 0 0 0 0 0 0 0 0 0 0 0 0 0 0 0 0 0 0 0 0
0 0 0 -0 0 0 0 0 0 0 0 0 -0 -0 -0 -0 -0 0 0 0 0 0 0 0 0 0 0 0 0 0 0 0 0 0 0 0 0 0 0 0 0 0 0 0
0 0 0 0 0 -0 -0 -0 0 0 0 0 -0 -0 -0 0 -0 0 0 0 0 0 0 0 0 0 0 0 1 0 0 0 0 0 0 0 0 0 0 0 0 0 0 0
0 0 0 0 0 0 0 -0 -0 0 0 0 0 0 0 -0 0 0 0 0 0 0 0 0 0 0 0 0 1 1 1 0 0 0 0 0 0 0 0 0 0 0 0 0
0 0 -0 0 0 0 0 -0 -0 0 0 0 0 0 0 0 0 0 0 0 0 0 0 0 0 0 0 0 0 0 1 1 1 0 0 0 0 0 0 0 0 0 0 0
0 0 0 0 0 0 0 0 0 -0 -0 0 0 0 0 0 0 0 0 0 0 0 0 0 0 0 0 0 0 0 0 0 0 0 0 0 0 0 0 0 0 0 0 0
0 0 0 0 0 0 0 0 0 0 0 0 0 0 0 0 0 0 0 0 0 0 -0 0 0 0 0 0 0 0 0 0 0 0 0 0 0 0 0 0 0 0 0 0
0 0 0 0 0 0 0 0 0 0 0 0 0 0 -0 0 -0 0 0 0 0 0 -0 -0 0 0 0 0 0 0 0 0 0 0 0 0 0 0 0 0 0 0 0 0
0 0 0 0 0 0 0 0 0 0 0 0 -0 -0 -0 0 0 0 0 0 0 -0 -0 0 0 0 0 0 0 0 0 0 0 0 0 0 0 0 0 0 0 0 0 0
0 0 0 0 0 0 0 -0 -0 0 0 0 0 -0 -0 0 0 0 0 0 0 -0 -0 -0 0 0 0 0 0 0 0 0 0 0 0 0 0 0 0 0 0 0 0 0
0 0 0 0 0 0 0 -0 -0 -0 0 0 0 0 0 0 0 -0 -0 0 0 -0 -0 -0 0 0 0 0 0 0 0 0 0 0 0 0 0 0 0 0 0 0 0 0
0 0 0 0 0 0 0 -0 -0 -0 -0 0 0 0 -0 0 -0 0 0 0 0 0 -0 -0 -0 0 0 0 0 0 0 0 0 0 0 0 0 0 0 0 0 0 0 0
0 0 0 0 0 0 0 0 0 0 0 0 0 -0 0 0 0 0 0 0 0 0 -0 0 0 0 0 0 0 0 0 0 0 0 0 0 0 0 0 0 0 0 0 0
0 0 0 0 0 0 0 0 0 0 0 0 0 0 0 -0 0 0 0 -0 0 0 0 0 0 0 0 0 0 0 0 0 0 0 0 0 0 0 0 0 0 0 0 0
0 0 0 0 0 0 0 0 0 0 0 0 0 0 0 0 -0 0 -0 -0 -0 0 0 0 0 0 0 0 0 0 0 0 0 0 0 0 0 0 0 0 0 0 0 0
0 0 0 0 0 0 0 0 0 0 0 0 0 0 0 0 0 -0 -0 0 0 0 0 0 0 0 0 0 0 0 0 0 0 0 0 0 0 0 0 0 0 0 0 0
0 0 0 0 0 0 0 0 0 0 0 0 0 0 0 -0 -0 0 0 -0 0 0 0 0 0 0 0 0 0 0 0 0 0 0 0 0 0 0 0 0 0 0 0 0
0 0 0 0 0 0 0 0 0 0 0 0 0 0 0 -0 -0 -0 0 0 -0 0 0 0 0 0 0 0 0 0 0 0 0 0 0 0 0 0 0 0 0 0 0 0
0 0 0 0 0 0 0 0 0 0 0 0 0 0 0 0 0 0 0 0 -0 0 0 0 0 0 0 0 0 0 0 0 0 0 0 0 0 0 0 0 0 0 0 0
0 0 0 0 -0 0 0 0 0 0 0 0 0 0 0 0 0 0 0 0 -0 -0 -0 0 0 0 0 0 -0 -0 -0 0 0 0 0 0 0 0 0 0 0 0 0 0
0 0 0 0 0 -0 0 0 0 0 0 0 0 0 0 0 0 0 0 0 -0 -0 -0 -0 -0 0 -0 -0 -0 -0 0 0 0 0 0 0 0 0 0 0 0 0 0 0
0 0 0 0 0 0 0 0 0 0 0 0 0 0 0 0 0 0 -0 -0 -0 0 -0 0 0 0 -0 -0 0 0 0 0 0 0 0 0 0 0 0 0 0 0 0 0
Wind_Speed_500mb
21 10 6 16 15 19 23 22 27 31 24 13 11 18 22 29 50 42 46 56 67 62 48 53 55 53 55 61 64 67 65 61 62 69 70 70 71 63 54 50 47 46 43 40
13 6 17 21 20 17 17 20 24 30 27 21 19 26 25 32 41 50 48 50 37 44 55 53 59 56 64 65 68 69 68 65 64 66 72 71 66 67 64 56 54 49 48 44
19 12 20 18 19 21 19 17 16 20 34 27 21 33 23 33 58 62 64 63 57 46 45 51 61 63 55 64 69 75 73 71 67 65 64 64 63 61 63 58 54 55 51 48
14 13 19 18 20 17 18 20 19 15 8 9 10 16 12 22 29 43 63 68 63 60 59 49 47 68 64 60 66 71 71 72 72 66 64 68 70 75 66 56 55 52 51 46
16 23 19 20 15 12 11 19 21 26 21 16 20 13 11 20 33 28 42 79 76 76 82 66 53 41 63 61 63 71 73 71 78 71 64 65 68 62 56 58 56 53 48 39
24 39 19 12 25 19 18 20 22 20 14 11 24 21 11 20 23 15 21 28 64 72 73 82 76 59 42 58 59 63 71 77 80 75 64 69 70 60 54 53 54 44 49 51
25 7 9 8 17 14 10 9 7 3 4 10 8 22 28 25 26 12 15 25 15 15 19 39 65 65 61 45 55 59 64 75 74 74 66 63 63 61 60 51 54 54 53 56
9 11 3 6 6 12 24 11 6 11 4 20 31 12 9 24 41 2 17 26 7 20 23 25 25 15 64 65 61 63 66 69 70 74 66 54 60 60 61 57 62 62 55 56
8 9 31 27 21 12 5 6 15 16 23 9 10 21 27 31 8 4 23 49 44 37 28 24 28 26 26 27 52 61 63 61 58 61 65 62 63 66 61 65 57 67 56 56
7 14 17 18 22 19 18 14 7 5 6 8 12 18 13 20 27 28 22 28 33 34 40 39 34 26 27 31 41 66 64 63 63 62 64 65 65 68 67 64 61 58 56 46
7 5 10 16 7 14 11 9 7 8 8 9 18 9 4 8 23 18 15 33 26 35 37 42 43 36 34 38 44 52 58 63 69 65 65 59 58 58 67 64 61 50 41 26
13 7 9 18 35 34 26 28 21 7 15 11 22 26 32 29 23 43 51 53 51 43 42 40 46 40 36 37 40 45 50 59 65 73 74 56 44 47 51 56 51 39 35 30
2 7 10 18 10 9 3 6 13 15 18 21 14 14 18 41 42 51 45 47 49 41 36 43 48 42 36 35 27 38 48 57 66 73 78 71 63 62 67 51 37 28 24 22
22 8 16 20 24 19 40 39 31 6 12 27 33 50 51 47 44 53 47 51 56 49 54 54 50 44 37 33 31 40 48 58 66 72 74 76 82 82 74 59 47 36 35 31
9 13 16 29 35 36 44 46 43 36 43 31 57 49 56 49 45 45 58 69 64 56 50 45 49 42 39 31 32 39 47 56 68 78 86 89 85 77 66 59 51 46 40 31
16 23 13 34 31 36 51 52 50 54 54 40 54 62 64 72 68 66 68 67 61 49 45 44 40 40 36 32 33 39 46 53 68 83 82 78 68 65 59 57 53 47 37 35
16 5 7 27 19 27 32 32 31 28 36 33 39 54 43 42 37 44 49 53 41 23 32 36 37 37 32 33 32 37 45 52 59 63 70 68 62 56 50 48 40 41 39 33
15 5 5 17 12 10 16 14 17 27 36 26 33 35 32 35 35 43 38 37 35 30 29 34 36 36 33 29 27 32 39 45 48 58 56 57 57 53 51 46 40 36 30 27
20 6 7 6 6 30 31 8 4 2 12 18 24 14 18 32 54 68 46 49 53 55 40 36 32 38 32 29 33 38 44 44 48 49 54 49 41 41 42 41 39 34 27 23
7 9 9 3 6 11 11 8 7 2 16 11 16 8 12 48 31 29 41 42 43 35 39 39 38 38 35 39 41 44 47 46 44 37 40 38 38 40 37 34 32 28 23 19
2 5 23 19 15 17 27 27 5 6 10 3 10 22 28 29 29 51 46 31 20 30 39 35 37 42 45 49 48 46 47 47 56 47 41 37 33 28 25 23 22 20 21 20
14 11 8 6 8 20 6 12 12 9 18 19 36 35 48 49 54 27 29 27 26 33 41 41 52 54 53 54 53 56 50 46 42 39 37 33 29 26 23 21 19 20 20 24
8 13 7 19 15 21 12 34 35 47 56 59 60 63 52 32 23 5 13 12 17 26 42 59 51 50 55 58 52 42 40 39 38 35 30 26 22 23 21 19 19 23 22 20
10 30 9 5 13 32 49 52 67 65 59 61 58 56 32 25 17 10 3 20 30 40 42 46 54 52 46 43 41 37 34 34 31 27 25 25 26 22 20 24 23 20 21 20
15 10 11 22 46 71 64 27 25 27 33 52 46 37 42 31 20 14 22 32 42 49 53 55 56 58 56 50 41 37 32 29 27 23 20 19 18 19 20 21 24 28 28 25
29 16 15 18 31 30 33 35 23 47 58 37 29 22 21 22 16 19 30 32 36 44 47 43 36 36 39 39 36 32 28 24 21 19 21 23 26 28 29 30 33 33 31 31
Wind_Direction_500mb
316 299 312 1 356 334 327 322 309 304 316 353 286 311 298 280 283 283 280 237 234 239 231 221 213 212 212 208 209 213 224 223 217 215 215 216 213 208 212 212 226 236 237 234
350 325 7 338 337 328 309 303 300 297 305 314 319 294 291 285 286 283 283 286 268 245 242 237 211 208 212 216 209 208 220 226 223 220 219 221 220 216 221 222 221 230 235 236
316 344 347 328 325 309 292 276 277 290 317 314 306 285 268 267 272 279 274 274 277 278 262 251 213 209 216 214 214 215 212 221 228 228 217 219 218 218 225 223 225 225 229 231
288 345 331 317 311 318 300 352 330 296 280 264 354 290 291 305 257 245 246 259 263 271 265 268 250 208 213 221 224 219 211 213 228 230 221 219 219 217 218 223 224 224 225 234
282 329 342 323 301 351 282 356 316 305 296 271 257 277 226 225 259 265 236 239 240 244 249 251 257 246 223 227 229 218 214 209 225 231 227 221 221 224 227 222 230 225 225 228
271 272 273 275 308 302 296 298 289 261 265 256 236 230 200 214 237 243 278 276 232 233 235 244 243 246 251 229 230 222 217 218 226 232 229 222 221 217 216 224 228 227 227 222
312 332 147 304 297 244 239 294 303 302 223 240 246 222 246 301 284 286 292 300 353 355 6 238 240 244 245 247 223 223 224 218 218 231 229 222 222 218 215 223 220 221 221 220
340 323 169 109 288 302 300 260 244 302 282 312 309 260 258 227 249 320 259 247 341 355 340 305 279 284 233 230 236 226 221 220 218 223 233 224 217 215 216 219 220 219 225 218
324 259 335 306 286 294 264 266 266 280 287 272 224 292 303 292 274 243 14 34 20 9 354 318 288 284 258 236 220 224 222 224 216 214 216 219 218 219 220 222 228 223 222 212
327 298 269 296 324 262 235 269 315 239 275 261 255 248 267 32 36 23 14 13 1 357 356 333 311 295 265 242 224 214 214 217 215 211 214 216 218 219 220 223 220 217 205 192
294 218 294 333 265 278 310 276 257 282 261 272 282 259 139 87 350 326 305 317 321 321 328 335 328 304 269 254 239 233 222 225 223 221 220 218 220 221 222 216 197 176 157 156
203 259 291 265 274 270 266 281 300 297 302 287 276 267 288 306 342 331 321 311 313 307 314 323 320 310 283 269 253 249 239 226 215 211 206 209 215 217 221 195 170 164 176 174
266 263 309 318 334 14 35 305 296 301 288 264 290 274 288 307 306 305 297 303 313 324 317 317 313 309 282 279 250 229 216 210 208 208 204 202 206 212 189 175 170 174 178 191
279 230 229 254 256 301 294 286 279 214 266 279 264 270 283 282 284 286 303 317 311 309 304 298 301 296 277 273 247 227 216 207 198 193 191 186 182 184 184 182 174 169 177 184
208 257 253 259 270 276 273 271 271 259 255 251 266 269 264 269 274 290 298 293 289 292 295 285 294 284 273 264 248 229 217 205 196 189 182 178 177 178 174 172 172 168 167 168
197 270 284 279 271 273 274 269 261 259 255 251 253 264 262 280 287 277 273 276 275 268 289 279 279 267 266 254 242 224 210 197 189 179 173 170 169 167 168 167 163 165 163 162
272 254 293 280 284 309 288 261 249 256 255 251 253 255 278 271 267 268 264 267 268 276 288 272 269 260 254 242 236 215 200 190 178 173 166 161 157 154 152 149 149 146 164 162
251 279 249 289 328 260 239 274 273 279 264 252 265 270 272 281 306 308 298 301 298 267 275 257 253 243 230 226 208 191 179 171 165 154 147 145 145 144 144 147 162 153 170 167
237 231 276 257 234 282 291 312 24 7 299 240 252 274 295 327 320 291 291 289 286 268 250 241 240 229 210 194 178 164 149 145 146 144 141 147 148 150 155 158 163 166 168 171
248 203 226 5 261 260 245 129 87 252 284 219 188 283 352 327 290 278 288 275 292 232 218 219 225 209 186 169 160 155 148 142 132 131 136 145 154 157 158 159 160 160 161 163
179 245 228 238 255 270 254 262 89 121 285 56 332 316 296 291 276 279 282 292 258 202 203 201 200 177 168 158 158 147 138 136 126 141 158 156 155 152 156 161 162 163 162 163
181 167 201 189 223 265 238 126 175 235 310 293 297 300 317 306 309 284 258 236 215 191 184 183 168 164 166 162 152 145 153 154 159 163 152 156 162 169 172 175 175 169 172 183
244 201 198 196 227 244 241 239 259 278 287 289 301 308 315 331 337 207 217 218 191 173 161 153 152 143 144 152 158 161 159 159 165 164 166 166 167 180 178 188 190 187 187 198
250 245 233 50 270 255 272 284 282 279 286 288 291 294 296 298 291 252 232 152 145 138 149 149 148 144 145 153 154 159 159 168 170 173 173 183 191 195 193 199 200 200 204 212
208 160 208 255 274 278 277 271 328 338 292 285 301 269 273 298 287 238 184 176 170 158 157 163 165 162 160 162 167 168 171 174 180 187 200 214 223 226 226 223 220 219 224 231
197 210 195 231 230 243 272 288 305 310 322 320 306 279 277 277 269 204 195 184 186 183 186 184 182 174 172 172 175 176 179 187 197 212 222 224 225 224 222 221 223 225 230 237
Wind_Speed_850mb
21 10 6 16 15 19 23 22 27 31 24 13 11 18 22 29 50 42 46 56 67 62 48 53 55 53 55 61 64 67 65 61 62 69 70 70 71 63 54 50 47 46 43 40
13 6 17 21 20 17 17 20 24 30 27 21 19 26 25 32 41 50 48 50 37 44 55 53 59 56 64 65 68 69 68 65 64 66 72 71 66 67 64 56 54 49 48 44
19 12 20 18 19 21 19 17 16 20 34 27 21 33 23 33 58 62 64 63 57 46 45 51 61 63 55 64 69 75 73 71 67 65 64 64 63 61 63 58 54 55 51 48
14 13 19 18 20 17 18 20 19 15 8 9 10 16 12 22 29 43 63 68 63 60 59 49 47 68 64 60 66 71 71 72 72 66 64 68 70 75 66 56 55 52 51 46
16 23 19 20 15 12 11 19 21 26 21 16 20 13 11 20 33 28 42 79 76 76 82 66 53 41 63 61 63 71 73 71 78 71 64 65 68 62 56 58 56 53 48 39
24 39 19 12 25 19 18 20 22 20 14 11 24 21 11 20 23 15 21 28 64 72 73 82 76 59 42 58 59 63 71 77 80 75 64 69 70 60 54 53 54 44 49 51
25 7 9 8 17 14 10 9 7 3 4 10 8 22 28 25 26 12 15 25 15 15 19 39 65 65 61 45 55 59 64 75 74 74 66 63 63 61 60 51 54 54 53 56
9 11 3 6 6 12 24 11 6 11 4 20 31 12 9 24 41 2 17 26 7 20 23 25 25 15 64 65 61 63 66 69 70 74 66 54 60 60 61 57 62 62 55 56
8 9 31 27 21 12 5 6 15 16 23 9 10 21 27 31 8 4 23 49 44 37 28 24 28 26 26 27 52 61 63 61 58 61 65 62 63 66 61 65 57 67 56 56
7 14 17 18 22 19 18 14 7 5 6 8 12 18 13 20 27 28 22 28 33 34 40 39 34 26 27 31 41 66 64 63 63 62 64 65 65 68 67 64 61 58 56 46
7 5 10 16 7 14 11 9 7 8 8 9 18 9 4 8 23 18 15 33 26 35 37 42 43 36 34 38 44 52 58 63 69 65 65 59 58 58 67 64 61 50 41 26
13 7 9 18 35 34 26 28 21 7 15 11 22 26 32 29 23 43 51 53 51 43 42 40 46 40 36 37 40 45 50 59 65 73 74 56 44 47 51 56 51 39 35 30
2 7 10 18 10 9 3 6 13 15 18 21 14 14 18 41 42 51 45 47 49 41 36 43 48 42 36 35 27 38 48 57 66 73 78 71 63 62 67 51 37 28 24 22
22 8 16 20 24 19 40 39 31 6 12 27 33 50 51 47 44 53 47 51 56 49 54 54 50 44 37 33 31 40 48 58 66 72 74 76 82 82 74 59 47 36 35 31
9 13 16 29 35 36 44 46 43 36 43 31 57 49 56 49 45 45 58 69 64 56 50 45 49 42 39 31 32 39 47 56 68 78 86 89 85 77 66 59 51 46 40 31
16 23 13 34 31 36 51 52 50 54 54 40 54 62 64 72 68 66 68 67 61 49 45 44 40 40 36 32 33 39 46 53 68 83 82 78 68 65 59 57 53 47 37 35
16 5 7 27 19 27 32 32 31 28 36 33 39 54 43 42 37 44 49 53 41 23 32 36 37 37 32 33 32 37 45 52 59 63 70 68 62 56 50 48 40 41 39 33
15 5 5 17 12 10 16 14 17 27 36 26 33 35 32 35 35 43 38 37 35 30 29 34 36 36 33 29 27 32 39 45 48 58 56 57 57 53 51 46 40 36 30 27
20 6 7 6 6 30 31 8 4 2 12 18 24 14 18 32 54 68 46 49 53 55 40 36 32 38 32 29 33 38 44 44 48 49 54 49 41 41 42 41 39 34 27 23
7 9 9 3 6 11 11 8 7 2 16 11 16 8 12 48 31 29 41 42 43 35 39 39 38 38 35 39 41 44 47 46 44 37 40 38 38 40 37 34 32 28 23 19
2 5 23 19 15 17 27 27 5 6 10 3 10 22 28 29 29 51 46 31 20 30 39 35 37 42 45 49 48 46 47 47 56 47 41 37 33 28 25 23 22 20 21 20
14 11 8 6 8 20 6 12 12 9 18 19 36 35 48 49 54 27 29 27 26 33 41 41 52 54 53 54 53 56 50 46 42 39 37 33 29 26 23 21 19 20 20 24
8 13 7 19 15 21 12 34 35 47 56 59 60 63 52 32 23 5 13 12 17 26 42 59 51 50 55 58 52 42 40 39 38 35 30 26 22 23 21 19 19 23 22 20
10 30 9 5 13 32 49 52 67 65 59 61 58 56 32 25 17 10 3 20 30 40 42 46 54 52 46 43 41 37 34 34 31 27 25 25 26 22 20 24 23 20 21 20
15 10 11 22 46 71 64 27 25 27 33 52 46 37 42 31 20 14 22 32 42 49 53 55 56 58 56 50 41 37 32 29 27 23 20 19 18 19 20 21 24 28 28 25
29 16 15 18 31 30 33 35 23 47 58 37 29 22 21 22 16 19 30 32 36 44 47 43 36 36 39 39 36 32 28 24 21 19 21 23 26 28 29 30 33 33 31 31
Wind_Direction_850mb
316 299 312 1 356 334 327 322 309 304 316 353 286 311 298 280 283 283 280 237 234 239 231 221 213 212 212 208 209 213 224 223 217 215 215 216 213 208 212 212 226 236 237 234
350 325 7 338 337 328 309 303 300 297 305 314 319 294 291 285 286 283 283 286 268 245 242 237 211 208 212 216 209 208 220 226 223 220 219 221 220 216 221 222 221 230 235 236
316 344 347 328 325 309 292 276 277 290 317 314 306 285 268 267 272 279 274 274 277 278 262 251 213 209 216 214 214 215 212 221 228 228 217 219 218 218 225 223 225 225 229 231
288 345 331 317 311 318 300 352 330 296 280 264 354 290 291 305 257 245 246 259 263 271 265 268 250 208 213 221 224 219 211 213 228 230 221 219 219 217 218 223 224 224 225 234
282 329 342 323 301 351 282 356 316 305 296 271 257 277 226 225 259 265 236 239 240 244 249 251 257 246 223 227 229 218 214 209 225 231 227 221 221 224 227 222 230 225 225 228
271 272 273 275 308 302 296 298 289 261 265 256 236 230 200 214 237 243 278 276 232 233 235 244 243 246 251 229 230 222 217 218 226 232 229 222 221 217 216 224 228 227 227 222
312 332 147 304 297 244 239 294 303 302 223 240 246 222 246 301 284 286 292 300 353 355 6 238 240 244 245 247 223 223 224 218 218 231 229 222 222 218 215 223 220 221 221 220
340 323 169 109 288 302 300 260 244 302 282 312 309 260 258 227 249 320 259 247 341 355 340 305 279 284 233 230 236 226 221 220 218 223 233 224 217 215 216 219 220 219 225 218
324 259 335 306 286 294 264 266 266 280 287 272 224 292 303 292 274 243 14 34 20 9 354 318 288 284 258 236 220 224 222 224 216 214 216 219 218 219 220 222 228 223 222 212
327 298 269 296 324 262 235 269 315 239 275 261 255 248 267 32 36 23 14 13 1 357 356 333 311 295 265 242 224 214 214 217 215 211 214 216 218 219 220 223 220 217 205 192
294 218 294 333 265 278 310 276 257 282 261 272 282 259 139 87 350 326 305 317 321 321 328 335 328 304 269 254 239 233 222 225 223 221 220 218 220 221 222 216 197 176 157 156
203 259 291 265 274 270 266 281 300 297 302 287 276 267 288 306 342 331 321 311 313 307 314 323 320 310 283 269 253 249 239 226 215 211 206 209 215 217 221 195 170 164 176 174
266 263 309 318 334 14 35 305 296 301 288 264 290 274 288 307 306 305 297 303 313 324 317 317 313 309 282 279 250 229 216 210 208 208 204 202 206 212 189 175 170 174 178 191
279 230 229 254 256 301 294 286 279 214 266 279 264 270 283 282 284 286 303 317 311 309 304 298 301 296 277 273 247 227 216 207 198 193 191 186 182 184 184 182 174 169 177 184
208 257 253 259 270 276 273 271 271 259 255 251 266 269 264 269 274 290 298 293 289 292 295 285 294 284 273 264 248 229 217 205 196 189 182 178 177 178 174 172 172 168 167 168
197 270 284 279 271 273 274 269 261 259 255 251 253 264 262 280 287 277 273 276 275 268 289 279 279 267 266 254 242 224 210 197 189 179 173 170 169 167 168 167 163 165 163 162
272 254 293 280 284 309 288 261 249 256 255 251 253 255 278 271 267 268 264 267 268 276 288 272 269 260 254 242 236 215 200 190 178 173 166 161 157 154 152 149 149 146 164 162
251 279 249 289 328 260 239 274 273 279 264 252 265 270 272 281 306 308 298 301 298 267 275 257 253 243 230 226 208 191 179 171 165 154 147 145 145 144 144 147 162 153 170 167
237 231 276 257 234 282 291 312 24 7 299 240 252 274 295 327 320 291 291 289 286 268 250 241 240 229 210 194 178 164 149 145 146 144 141 147 148 150 155 158 163 166 168 171
248 203 226 5 261 260 245 129 87 252 284 219 188 283 352 327 290 278 288 275 292 232 218 219 225 209 186 169 160 155 148 142 132 131 136 145 154 157 158 159 160 160 161 163
179 245 228 238 255 270 254 262 89 121 285 56 332 316 296 291 276 279 282 292 258 202 203 201 200 177 168 158 158 147 138 136 126 141 158 156 155 152 156 161 162 163 162 163
181 167 201 189 223 265 238 126 175 235 310 293 297 300 317 306 309 284 258 236 215 191 184 183 168 164 166 162 152 145 153 154 159 163 152 156 162 169 172 175 175 169 172 183
244 201 198 196 227 244 241 239 259 278 287 289 301 308 315 331 337 207 217 218 191 173 161 153 152 143 144 152 158 161 159 159 165 164 166 166 167 180 178 188 190 187 187 198
250 245 233 50 270 255 272 284 282 279 286 288 291 294 296 298 291 252 232 152 145 138 149 149 148 144 145 153 154 159 159 168 170 173 173 183 191 195 193 199 200 200 204 212
208 160 208 255 274 278 277 271 328 338 292 285 301 269 273 298 287 238 184 176 170 158 157 163 165 162 160 162 167 168 171 174 180 187 200 214 223 226 226 223 220 219 224 231
197 210 195 231 230 243 272 288 305 310 322 320 306 279 277 277 269 204 195 184 186 183 186 184 182 174 172 172 175 176 179 187 197 212 222 224 225 224 222 221 223 225 230 237